This demonstration page uses our WeatherBlox Daily Observations layout. Learn more.

Left ArrowRight Arrow

38.83388, -104.82136

Hourly Observations for January 4, 2017

Temp ( °F °C ) Dew Point ( °F °C ) Humidity (%) Winds ( mph kmh ) Pressure ( in mb ) Visibility ( mi km ) Precip ( " mm )
12:58 am 00:58 Clear 10 -12.1 8 -13.3 91 91 Calm 29.85 1011 10 16 0.00 0.00
1:58 am 01:58 Clear 11 -11.8 8 -13.3 89 89 Calm 29.83 1010 10 16 0.00 0.00
2:58 am 02:58 Clear 12 -11.2 10 -12.3 92 92 S 5 7 29.81 1010 10 16 0.00 0.00
3:58 am 03:58 Clear 11 -11.7 8 -13.2 89 89 Calm 29.76 1008 10 16 0.00 0.00
4:58 am 04:58 Clear 10 -12.1 8 -13.5 89 89 WNW 6 9 29.72 1007 10 16 0.00 0.00
5:58 am 05:58 Clear 10 -12.1 8 -13.6 89 89 N 3 6 29.70 1006 10 16 0.00 0.00
6:58 am 06:58 Mostly Clear 10 -12.3 7 -13.8 89 89 N 8 13 29.70 1006 10 16 0.00 0.00
7:58 am 07:58 Sunny 14 -10.2 10 -12.3 85 85 N 5 7 29.66 1005 10 16 0.00 0.00
8:51 am 08:51 Sunny with Light Snow Showers 16 -9 10 -12 79 79 NE 8 13 29.94 1014 10 16 0.00 0.00
8:53 am 08:53 Sunny 16 -9 12 -11 86 86 WSW 3 6 29.94 1014 10 16 0.00 0.00
8:54 am 08:54 Sunny with Light Snow Showers 16 -9 10 -12 79 79 NNW 5 7 30.00 1016 10 16 0.00 0.00
8:58 am 08:58 Sunny with Light Snow Showers 15 -9.2 10 -12.5 77 77 Calm 29.65 1004 10 16 0.00 0.00
9:06 am 09:06 Sunny 16 -9 10 -12 79 79 SE 5 7 29.94 1014 10 16 0.00 0.00
9:58 am 09:58 Partly Cloudy 16 -9 10 -12.3 77 77 NNE 3 6 29.65 1004 10 16 0.00 0.00
10:58 am 10:58 Sunny 19 -7.4 13 -10.4 79 79 ENE 3 6 29.58 1002 10 16 0.00 0.00
11:58 am 11:58 Sunny 19 -7.1 13 -10.4 78 78 S 9 15 29.52 1000 10 16 0.00 0.00
12:58 pm 12:58 Mostly Sunny 20 -6.8 14 -9.9 79 79 Calm 29.51 999 10 16 0.00 0.00
1:58 pm 13:58 Mostly Sunny 20 -6.5 13 -10.3 75 75 ESE 3 6 29.48 998 10 16 0.00 0.00
2:58 pm 14:58 Sunny 20 -6.9 13 -10.8 74 74 Calm 29.50 999 10 16 0.00 0.00
4:27 pm 16:27 Mostly Cloudy with Light Snow 19 -7 12 -11 73 73 Calm 29.83 1010 10 16 0.00 0.00
4:46 pm 16:46 Cloudy with Light Snow Showers 18 -8 12 -11 79 79 NNW 3 6 29.85 1011 10 16 0.00 0.00
5:58 pm 17:58 Mostly Cloudy with Light Snow Showers 17 -8.4 12 -11.1 81 81 N 5 7 29.60 1002 10 16 0.00 0.00
6:33 pm 18:33 Mostly Cloudy with Light Snow 12 -11 9 -13 85 85 N 13 20 30.00 1016 3 5 0.00 0.00
6:58 pm 18:58 Mostly Cloudy with Light Snow 9 -12.9 4 -15.4 82 82 N 12 19 29.67 1005 10 16 0.00 0.00
7:58 pm 19:58 Mostly Cloudy with Light Snow 6 -14.7 0 -17.9 77 77 NNW 13 20 29.70 1006 5 8 0.00 0.00
8:58 pm 20:58 Cloudy with Light Snow 4 -15.7 -1 -18.4 80 80 N 8 13 29.70 1006 2 4 0.00 0.00
9:58 pm 21:58 Cloudy with Light Snow 3 -16.2 -1 -18.3 84 84 ENE 3 6 29.70 1006 2 2 0.00 0.00
10:03 pm 22:03 Cloudy with Light Snow 3 -16 0 -18 85 85 Calm 30.18 1022 2 2 0.00 0.00
10:18 pm 22:18 Cloudy with Light Snow 3 -16 -2 -19 78 78 Calm 30.18 1022 1 2 0.00 0.00
10:58 pm 22:58 Cloudy with Light Snow 2 -16.5 -1 -18.2 87 87 Calm 29.69 1005 1 2 0.00 0.00
11:43 pm 23:43 Cloudy with Light Snow 3 -16 0 -18 85 85 SE 10 17 30.15 1021 3 5 0.00 0.00
11:58 pm 23:58 Cloudy with Light Snow 3 -16.2 0 -17.6 89 89 SE 8 13 29.67 1005 2 3 0.00 0.00

Powered by AerisWeather